STARLINK-37047, 68957

Orbit data source: Space-Track

STARLINK-37047, 68957 is a payload satellite owned by SpaceX/Seattle (US) in LEO that was launched on Fri, 01 May 2026 UTC via an FALCON 9 launch vehicle from the Air Force Eastern Test Range (AFETR). Payload-class satellites include a variety of spacecraft equipped with specific instruments for various scientific and technological missions. These include communications satellites like Starlink; space stations such as the ISS; scientific satellites like the Hubble; Earth observation satellites from companies like Planet Labs, Umbra, and HawkEye 360; GPS; miniature CubeSats for education and research; and military/defense satellites.

Loading next visibility...
Identifier
68957, 2026-099G
Orbit
LEO
Country
Flag of USUS
Related business
Manufacturer
SpaceX/Seattle
Mission
Operational spacecraft
Bus & Motor
STARLINK V2MO, Unknown motor
Mass
575 kg wet, ~530 kg dry
Launch date (UTC)
2026-05-01 (2 months ago)
Launch vehicle
FALCON 9
Launch site
Air Force Eastern Test Range (AFETR)
Object type
Payload
Rocket body
Debris
Shape & HBR
Unknown shape, 14.5 m
Radar Cross Section
Large (>1 m²)

Expand to show TLE details & history
Last TLE update: 11 hours ago

TLE from 11 hours ago
0 STARLINK-37047
1 68957U 26099G   26171.40632406  .00025076  00000-0  72666-3 0  9993
2 68957  53.1608 146.4731 0001255  86.0263 274.0883 15.35431298  7767
Epoch: 2026-06-20T09:45Z
TLE epoch observation values (Epoch: 2026-06-20T09:45:06.398Z)
Latitude
-0.00008°
Longitude
91.57498°
Altitude
460.48 km
Speed
7.638 km/s
True Right ascension
09h 45m 53s
True Declination
0° 00' 00"
Sunlit
Object was in daylight at epoch
Visualization orbit readout
Latitude
Unknown
Longitude
Unknown
Altitude
Unknown
Speed
Unknown
Apparent Right ascension
Unknown
Apparent Declination
Unknown
Sunlit
N/A
Visualization observer readout
Local Sidereal Time
07:15:52
Azimuth
Unknown
Elevation
Unknown
Doppler factor
Unknown
Orbital elements
Apogee altitude
460.755 km
Perigee altitude
459.038 km
Semi-major axis
6,838.034 km
Eccentricity
0.00013
Inclination
53.1608°
RAAN
146.4731°
Arg. of periapsis
86.0263°
True anomaly
274.07396°
Mean anomaly
274.0883°
Eccentric anomaly
274.08113°
Mean motion
3.83837 °/min
Orbital period
93.79 mins
BSTAR
0.00072666
Loading maneuver chart data...
Computing Atmospheric mass density...
Loading historical data...
Loading historical data...
Loading historical data...
Loading historical data...
Loading historical data...
Loading historical data...
Loading historical data...

Documentation

Showing up to 5 results
|